Showing default

OPS 9315 (IDSCS 5), 2219

Orbit data source: Space-Track

OPS 9315 (IDSCS 5), 2219 is a payload satellite owned by USAF SSD (US) in GEO that was launched on Thu, 16 Jun 1966 UTC via a TITAN IIIC launch vehicle from the Air Force Eastern Test Range (AFETR). Payload-class satellites include a variety of spacecraft equipped with specific instruments for various scientific and technological missions. These include communications satellites like Starlink; space stations such as the ISS; scientific satellites like the Hubble; Earth observation satellites from companies like Planet Labs, Umbra, and HawkEye 360; GPS; miniature CubeSats for education and research; and military/defense satellites.

Loading next visibility...
Identifier
2219, 1966-053F
Orbit
GEO
Country
Flag of USUS
Related business
Manufacturer
Philco-Ford WDL
Mission
Non-operational spacecraft
Bus & Motor
IDCSP, Unknown motor
Mass
45 kg wet, 45 kg dry
Launch date (UTC)
1966-06-16 (60 years ago)
Launch vehicle
TITAN IIIC
Launch site
Air Force Eastern Test Range (AFETR)
Object type
Payload
Rocket body
Debris
Shape & HBR
ICO POLY, 0.5 m
Radar Cross Section
Large (>1 m²)

Expand to show TLE details & history
Last TLE update: 3 weeks ago

TLE from 3 weeks ago
0 OPS 9315 (IDSCS 5)
1 02219U 66053F   26236.64693469 -.00000080  00000-0  00000-0 0  9999
2 02219   8.6856  44.6249 0053621 192.2761 167.7226  1.07398362 57263
Epoch: 2026-08-24T15:31Z
TLE epoch observation values (Epoch: 2026-08-24T15:31:35.157Z)
Latitude
Longitude
-161.07831°
Altitude
34,109.627 km
Speed
3.13 km/s
True Right ascension
02h 58m 58s
True Declination
0° 00' 00"
Sunlit
Object was in daylight at epoch
Visualization orbit readout
Latitude
Unknown
Longitude
Unknown
Altitude
Unknown
Speed
Unknown
Apparent Right ascension
Unknown
Apparent Declination
Unknown
Sunlit
N/A
Visualization observer readout
Local Sidereal Time
01:16:40
Azimuth
Unknown
Elevation
Unknown
Doppler factor
Unknown
Orbital elements
Apogee altitude
34,117.127 km
Perigee altitude
33,685.164 km
Semi-major axis
40,279.282 km
Eccentricity
0.00536
Inclination
8.6856°
RAAN
44.6249°
Arg. of periapsis
192.2761°
True anomaly
167.85241°
Mean anomaly
167.7226°
Eccentric anomaly
167.78759°
Mean motion
0.26849 °/min
Orbital period
1,340.86 mins
BSTAR
0
Loading maneuver chart data...
Computing Atmospheric mass density...
Loading historical data...
Loading historical data...
Loading historical data...
Loading historical data...
Loading historical data...
Loading historical data...
Loading historical data...

Documentation

Showing up to 5 results
|